Temperature
20 19 19 20 23 28 31 32 32 32 32 31 30 31 31 31 31 29 24 23 22 22 21 22 21 21 21 21 21 20 20 20 20 20 20 20 19 19 19 19 19 19 19 19 18 18 19 19 19
19 19 20 23 28 31 32 32 32 32 31 30 30 30 31 30 27 25 23 22 22 21 21 21 21 21 21 21 21 21 20 20 20 20 20 20 20 19 19 19 19 19 19 19 19 19 19 19 19
19 20 23 28 31 32 31 32 32 31 30 30 30 30 30 29 26 24 23 22 21 21 21 21 21 21 21 21 21 21 21 20 20 20 20 20 20 20 19 19 19 19 19 19 19 19 19 19 19
20 22 25 30 32 32 32 32 32 32 31 30 31 31 28 25 24 23 23 22 21 21 20 21 21 21 21 21 21 21 20 20 20 20 20 20 20 19 19 19 19 19 19 19 19 19 19 19 19
22 26 30 32 32 32 33 32 31 32 32 31 31 31 28 24 23 23 23 22 21 21 20 20 21 21 20 20 21 21 20 20 20 20 20 20 20 19 19 19 19 19 19 19 19 19 20 19 19
25 29 31 32 32 32 33 32 32 32 31 31 31 31 27 23 23 23 22 22 21 21 20 20 21 20 20 20 20 20 20 20 20 20 20 20 20 20 19 19 19 19 19 19 19 19 19 19 19
28 30 31 32 32 32 32 32 32 32 31 31 30 31 28 24 23 23 22 21 21 21 20 19 19 20 20 20 20 20 20 20 20 20 20 20 20 20 19 19 19 19 19 19 19 19 19 19 19
27 30 31 32 31 32 32 32 31 31 30 29 29 31 29 24 23 22 21 21 21 20 20 19 19 19 19 19 20 20 20 20 20 20 20 20 20 20 20 19 19 19 19 19 19 19 19 19 19
26 30 31 32 31 32 32 32 31 30 29 28 27 27 26 23 23 22 21 21 20 20 20 19 19 18 18 18 19 19 20 20 20 20 20 20 19 19 19 19 19 19 19 19 19 19 19 18 18
28 30 31 31 31 32 31 31 30 31 30 28 27 24 23 22 22 22 22 21 20 20 20 19 19 19 19 19 19 19 19 19 19 18 18 19 18 18 18 18 19 19 19 19 19 18 18 18 17
29 30 31 31 30 30 31 30 29 30 29 26 25 24 22 22 22 22 22 21 21 20 20 19 19 19 19 19 19 18 18 18 18 18 18 18 18 18 18 18 18 19 19 18 18 18 17 17 17
29 30 29 29 29 29 30 29 28 26 24 23 23 23 22 22 22 22 21 20 20 20 20 19 19 19 19 19 18 18 18 18 18 18 18 18 18 18 18 18 18 18 18 18 18 18 17 17 17
29 29 29 28 28 28 28 27 26 23 22 21 21 21 21 22 21 21 20 20 19 19 19 19 19 19 19 19 19 18 18 18 18 18 18 18 18 18 18 18 18 18 18 18 18 17 17 17 17
29 29 28 28 27 27 27 26 25 22 21 20 19 19 19 19 19 19 19 18 18 18 18 18 18 18 18 18 18 18 18 18 17 17 17 17 17 17 17 17 17 17 17 18 17 17 17 17 17
28 29 29 28 27 27 27 25 23 20 20 19 18 17 17 17 17 17 17 17 18 17 17 17 17 17 17 18 18 17 17 17 16 17 17 17 17 17 17 17 17 17 17 17 17 17 17 17 17
29 29 29 27 27 27 28 25 21 20 19 18 17 16 16 16 16 16 16 17 17 17 17 17 17 17 17 17 17 17 17 17 16 16 16 16 16 16 17 17 17 17 17 17 17 17 17 17 17
30 30 29 27 26 27 28 24 21 19 19 18 17 16 16 16 16 16 16 16 16 17 17 17 17 17 17 17 17 17 17 17 16 16 16 16 16 16 16 16 17 17 17 17 17 17 17 17 17
29 29 29 27 26 26 25 22 21 19 19 18 17 17 16 16 15 15 16 16 16 16 16 16 16 17 17 16 16 16 16 16 16 15 15 15 15 15 16 16 16 16 16 17 17 17 16 17 16
29 29 28 26 25 25 24 22 21 20 19 19 18 17 16 16 15 15 16 16 16 16 16 16 16 16 16 16 16 16 16 16 15 15 15 15 15 15 15 15 15 16 16 16 16 16 16 16 16
29 29 28 25 24 25 23 22 22 20 19 18 18 17 17 16 16 16 16 16 16 16 16 16 16 16 16 16 16 15 15 15 15 15 14 14 14 15 15 15 15 15 16 16 16 16 16 16 16
29 29 28 26 24 25 25 23 23 21 20 19 18 18 17 17 17 16 16 16 16 15 16 16 16 16 16 16 15 15 15 15 15 15 14 14 14 14 14 15 15 15 15 16 16 16 15 16 16
28 29 28 26 26 26 26 25 23 23 22 21 20 19 18 18 17 17 16 16 16 15 15 15 15 15 15 15 15 14 14 14 14 14 14 14 14 14 14 14 15 15 15 15 15 15 15 15 16
28 28 28 27 27 27 26 26 24 23 23 22 21 19 19 18 17 17 16 16 16 15 15 15 15 15 15 14 14 14 14 14 14 13 13 13 13 14 14 14 14 15 15 15 15 15 15 15 15
27 27 27 27 28 26 26 26 24 24 23 23 21 20 19 18 17 17 16 16 16 15 15 15 14 14 14 13 13 13 13 13 13 13 13 13 13 13 13 13 13 14 14 14 14 15 15 15 15
28 27 26 26 26 26 26 26 23 23 22 22 21 20 19 18 18 17 16 16 15 15 15 14 13 13 13 13 13 12 12 12 12 12 12 12 12 12 12 12 12 13 13 13 13 14 14 14 15
28 28 26 25 25 26 25 25 23 22 21 20 20 20 19 18 18 17 16 16 15 15 14 14 13 12 12 12 12 12 12 12 12 12 12 12 12 12 12 11 11 12 12 12 12 13 13 14 14
28 28 28 27 26 26 26 24 22 21 21 21 20 19 19 18 17 17 16 16 15 14 13 13 12 12 12 11 11 11 11 11 11 11 11 11 11 11 11 11 11 11 11 11 11 12 12 13 13
27 27 27 26 25 25 25 24 23 22 22 21 21 20 19 18 17 17 16 15 14 13 13 12 12 11 11 11 10 11 10 10 10 10 10 10 10 10 10 10 10 10 10 10 10 11 11 12 12
27 26 26 26 25 24 24 24 23 22 21 21 21 19 18 17 17 16 15 14 13 13 12 12 11 11 10 10 10 9 9 9 9 9 9 9 9 9 9 10 10 10 10 10 10 10 10 11 11
26 25 26 25 24 24 24 24 22 21 21 20 19 18 17 16 16 15 14 13 13 12 12 11 10 10 10 9 9 8 8 8 8 8 8 8 8 8 9 9 9 9 10 10 10 10 10 10 10
Wind_Speed
19 16 10 5 5 5 4 6 5 5 4 3 2 2 5 6 6 4 4 12 17 20 22 23 20 18 17 16 15 14 15 15 16 16 15 14 13 13 12 12 11 10 9 8 8 8 8 8 9
16 12 7 5 5 3 6 6 6 6 4 2 0 2 4 3 5 4 7 13 18 20 21 21 21 19 17 16 15 14 14 14 14 14 14 13 12 12 11 11 10 10 9 9 8 8 8 8 8
13 9 5 5 3 6 7 8 6 3 2 2 1 2 4 5 4 4 9 16 18 18 19 20 21 19 17 16 15 14 13 13 13 13 12 12 12 11 11 11 10 9 9 9 8 8 8 8 8
7 6 5 7 4 5 5 7 5 3 1 1 2 2 4 6 3 7 14 17 19 18 18 21 20 18 17 15 14 14 13 12 12 12 11 11 11 11 11 10 9 8 8 8 8 8 8 9 9
6 5 7 6 2 4 4 6 5 5 3 2 2 3 6 6 8 12 15 17 18 18 16 20 19 18 17 16 14 14 13 12 11 11 11 11 10 10 10 10 9 9 8 8 8 9 9 9 9
4 5 8 5 3 3 4 6 5 4 3 2 2 3 6 7 10 13 15 15 16 16 15 19 18 17 16 15 15 14 13 12 12 11 11 10 10 10 10 10 10 9 9 9 9 9 10 10 10
6 6 9 7 4 2 6 8 6 5 4 4 3 3 7 9 11 13 14 13 14 14 14 15 17 16 15 14 14 13 13 13 12 12 12 11 11 11 11 11 10 10 10 10 11 11 11 11 11
6 6 9 7 5 3 7 8 6 6 5 5 4 4 6 11 13 14 14 13 13 13 13 12 14 15 15 15 14 13 13 13 13 12 12 12 12 13 13 13 13 12 12 12 12 13 13 13 13
5 7 10 7 5 5 8 9 7 4 4 6 7 8 7 15 15 15 14 13 12 12 11 12 12 12 12 12 14 14 14 14 14 14 15 14 14 15 15 18 16 15 15 15 15 15 15 15 16
7 11 9 4 6 8 8 8 9 4 4 7 8 8 9 13 15 16 15 15 15 14 13 11 11 11 11 10 11 11 12 13 14 13 14 14 14 13 14 12 15 16 17 17 17 17 17 17 16
8 9 7 6 6 8 7 6 8 7 6 9 8 2 7 10 11 13 13 13 14 14 13 12 10 10 10 7 7 7 8 9 12 14 14 14 13 13 14 12 13 16 18 17 17 18 17 16 14
9 9 8 8 7 7 6 4 5 12 10 9 6 3 6 7 8 9 10 10 11 11 11 10 9 8 7 6 6 7 7 8 9 12 15 14 10 11 11 11 12 12 12 13 13 11 15 15 16
10 8 6 5 6 4 1 2 5 11 11 10 9 9 7 6 6 5 6 7 7 8 8 7 6 6 5 6 6 7 8 9 11 12 14 15 12 12 12 10 11 12 12 12 11 12 13 13 14
4 5 4 3 1 2 5 6 5 9 10 11 12 12 12 11 10 8 6 4 4 4 4 4 4 4 5 6 6 7 9 10 12 13 15 16 14 12 12 12 12 12 13 13 12 13 12 12 11
6 6 5 3 1 4 6 8 8 8 8 11 12 13 14 13 13 11 9 7 5 4 3 1 1 2 4 6 8 7 9 11 11 12 15 16 16 15 13 13 12 12 13 13 12 13 11 12 13
7 9 6 6 3 2 7 4 9 7 8 10 10 11 12 12 12 11 10 8 7 6 6 5 4 4 5 6 7 7 8 10 10 12 13 15 16 16 13 13 13 12 12 10 10 11 11 11 11
7 5 4 6 7 1 2 6 7 7 8 8 9 9 9 10 10 10 9 8 7 6 5 5 5 6 7 7 6 7 7 8 9 10 10 11 13 15 11 11 10 10 9 10 10 9 10 10 10
1 2 3 5 7 7 8 8 7 7 7 7 7 7 8 8 8 7 7 7 6 5 5 5 5 6 6 6 5 6 6 6 6 7 8 10 10 11 9 8 9 9 8 9 9 9 9 8 9
1 1 3 6 4 5 8 8 7 6 6 6 6 7 7 7 6 6 6 5 5 5 5 5 6 6 6 6 7 8 8 7 7 7 8 9 8 7 6 6 7 7 7 8 9 8 9 9 8
4 3 4 6 5 3 8 8 7 6 6 5 6 6 6 7 6 5 5 5 5 5 5 5 6 7 7 6 6 6 7 7 6 6 7 9 9 7 5 5 6 7 7 7 7 8 8 8 8
4 4 1 5 6 6 8 8 7 7 6 5 5 5 5 5 5 4 4 4 4 4 5 5 6 7 7 8 7 7 6 6 7 8 7 8 9 9 7 6 6 7 7 7 7 8 11 9 9
4 1 2 7 8 5 8 4 8 7 6 5 5 4 4 4 3 2 2 2 4 5 5 6 7 7 8 8 8 9 9 9 8 8 7 8 8 8 7 6 7 7 6 7 8 9 10 11 10
2 0 4 7 7 5 6 5 8 7 6 5 4 3 3 2 1 1 3 4 6 7 8 8 9 9 9 9 9 9 10 9 9 9 8 8 7 7 7 7 7 7 6 7 8 8 10 10 11
3 4 5 7 8 7 2 5 5 5 3 4 4 4 3 3 3 4 6 7 8 9 10 11 11 11 11 11 11 11 11 11 12 11 10 9 7 6 6 6 5 5 6 6 7 9 11 11 11
5 7 6 6 6 2 3 4 5 4 2 1 2 3 4 5 6 7 9 10 11 12 12 12 13 13 13 13 13 13 13 14 14 13 12 11 10 8 6 6 5 5 5 6 6 8 10 11 12
3 6 6 7 7 3 3 1 5 3 1 2 3 5 6 7 8 9 10 11 12 13 13 13 14 14 15 15 14 14 14 14 14 14 14 14 12 11 9 8 7 7 7 7 6 7 9 9 11
3 3 5 7 7 7 1 5 6 3 1 3 5 6 8 8 9 11 12 13 13 14 14 15 15 16 16 16 16 15 15 15 16 16 15 15 13 12 12 11 10 9 8 8 7 7 8 8 10
4 2 4 6 6 7 4 2 2 3 3 5 6 7 8 10 11 13 14 14 13 14 15 16 16 16 17 17 16 15 16 16 16 16 17 16 16 15 15 15 13 12 11 10 9 8 8 9 9
2 2 4 4 5 7 8 3 5 4 5 7 7 8 10 12 14 14 14 14 14 16 17 17 17 18 18 18 17 17 17 17 17 17 17 17 16 16 16 16 15 15 14 13 11 11 10 10 10
5 5 4 5 5 5 8 3 7 3 5 7 9 10 12 13 14 15 15 15 16 17 18 18 18 19 19 18 18 18 18 18 18 18 18 17 17 17 17 17 16 16 16 15 14 13 13 12 12
Wind_Direction
158 164 175 193 231 229 32 35 17 18 21 18 352 300 327 332 335 8 85 145 150 149 147 154 157 160 161 159 156 154 154 157 159 159 158 158 158 159 161 163 165 167 166 157 147 141 138 136 135
160 164 188 224 263 4 48 27 15 18 18 0 307 291 318 10 29 71 120 143 150 149 150 157 156 161 162 160 158 156 156 157 159 161 161 161 161 163 165 167 169 172 171 161 155 152 148 146 144
161 188 238 248 289 3 14 17 10 13 18 333 344 343 355 24 60 98 127 147 150 148 151 151 157 161 163 162 160 159 159 160 162 164 166 167 168 170 172 173 174 175 172 167 167 165 160 156 156
174 214 238 255 304 22 359 358 351 332 348 344 330 58 71 43 54 110 135 149 150 151 155 151 161 162 163 163 163 163 163 163 166 169 171 175 178 181 182 179 178 178 176 176 177 175 171 169 168
225 251 252 255 335 25 8 357 336 325 342 3 346 50 84 70 88 121 141 151 153 155 155 152 163 164 165 166 167 168 169 169 172 176 178 182 187 192 192 189 189 188 186 188 188 187 183 181 182
230 250 267 291 1 14 22 8 339 345 356 7 360 65 88 105 118 133 143 153 156 156 157 150 162 166 167 169 171 173 175 177 181 184 188 192 196 202 206 205 205 203 200 200 200 199 195 194 195
264 271 281 297 315 350 16 355 349 348 -0 21 8 52 110 121 125 136 142 151 155 158 157 156 167 171 173 175 178 179 182 186 190 194 197 201 207 212 216 218 218 218 215 212 211 211 209 206 207
267 272 267 271 287 330 8 350 355 349 29 33 5 30 102 133 138 138 141 149 157 161 164 163 172 174 180 183 185 189 193 196 199 204 209 211 215 220 224 226 220 224 226 224 223 221 220 217 216
244 252 263 276 295 324 354 343 354 7 54 56 47 39 85 134 142 144 144 150 159 166 170 173 174 177 186 191 184 195 201 205 209 211 213 218 224 222 217 225 220 223 229 231 230 229 227 226 223
228 253 267 305 309 315 332 337 344 334 47 52 49 68 116 143 153 156 156 160 166 172 177 179 182 177 190 198 192 206 212 210 218 226 220 222 229 234 233 213 215 227 233 236 234 235 234 233 233
231 257 282 285 299 309 310 340 6 345 23 10 355 55 139 152 161 163 164 167 169 175 180 182 186 187 199 205 212 217 225 226 227 231 232 235 238 235 235 229 217 223 229 234 231 231 235 233 234
240 252 268 284 301 298 302 322 23 32 11 0 8 78 136 152 160 164 163 167 167 177 183 187 188 196 208 223 230 238 242 241 243 237 235 236 236 239 238 234 232 225 225 228 235 234 235 237 237
237 255 264 289 291 292 294 53 65 38 26 41 61 75 86 101 116 126 139 150 161 173 181 184 196 208 218 232 250 254 258 260 257 256 250 246 243 241 238 238 239 238 235 229 231 238 240 241 240
250 258 267 316 307 156 124 86 64 35 40 56 61 63 63 62 64 72 83 110 139 159 171 183 209 233 252 260 266 272 272 269 270 266 261 254 251 249 246 241 239 240 240 241 240 241 242 244 243
251 239 180 72 121 165 159 81 48 41 60 68 67 64 61 55 54 54 55 58 64 70 70 58 304 305 300 295 290 284 281 281 279 276 270 263 256 251 247 246 242 242 242 241 243 248 248 246 244
221 215 170 73 42 164 227 95 49 47 72 72 71 69 67 60 57 54 54 55 54 55 53 34 6 343 321 309 302 298 295 294 288 283 276 269 265 258 250 246 245 244 242 240 240 243 244 244 245
200 192 136 101 44 102 138 92 61 59 78 77 74 74 73 69 61 56 55 55 51 52 48 32 13 353 337 318 306 304 304 300 297 291 286 278 270 264 255 249 249 247 243 240 242 238 241 243 242
163 178 127 93 64 86 98 99 80 67 74 77 78 77 75 70 62 58 60 60 58 53 44 28 13 358 337 330 323 320 318 318 318 316 310 299 282 273 266 255 256 253 243 237 235 241 240 244 244
293 257 111 103 110 89 101 102 90 86 81 81 79 78 79 77 76 69 66 62 59 49 38 24 12 1 350 349 343 341 337 334 334 338 340 329 315 300 282 276 266 260 252 242 235 232 235 234 233
220 213 137 123 137 137 125 112 107 96 86 79 86 90 94 95 93 82 72 64 52 44 33 21 11 1 352 353 337 332 331 330 340 346 345 347 341 323 298 287 284 267 260 251 243 235 244 240 224
232 266 193 152 156 165 159 145 139 124 119 113 108 108 106 102 97 90 74 56 43 30 16 5 355 347 349 341 336 338 332 331 341 345 348 352 350 346 336 310 293 279 269 259 249 238 238 242 231
256 289 208 173 192 194 222 214 154 150 148 142 135 130 122 122 114 95 58 22 6 357 348 343 338 337 334 328 336 338 334 333 336 333 339 339 344 347 349 338 322 306 286 269 255 242 239 238 236
355 83 201 204 236 232 213 260 146 167 177 163 156 156 157 156 158 335 337 336 332 331 331 329 329 326 322 317 311 308 314 321 322 326 326 325 331 338 345 347 339 326 306 286 269 256 241 233 237
142 166 189 216 237 240 202 279 149 158 167 162 173 192 212 238 273 300 312 316 318 321 322 322 323 320 316 308 302 297 299 303 308 310 312 312 314 317 324 324 326 318 308 298 279 262 245 241 241
227 254 254 240 238 235 134 265 92 98 121 190 236 239 248 264 283 297 307 313 317 319 322 322 321 319 317 310 302 296 293 292 289 293 299 300 299 297 297 301 302 300 296 293 288 273 259 245 239
289 291 301 303 307 313 187 233 101 93 117 260 274 275 274 280 292 301 307 312 313 317 321 321 321 318 316 312 308 302 295 290 291 294 296 294 291 289 286 276 270 273 278 279 274 274 269 256 244
287 321 331 294 289 289 247 127 130 141 208 271 281 284 287 293 300 304 309 313 314 319 322 320 318 315 313 311 307 298 295 294 294 293 285 283 283 282 277 270 264 258 256 260 264 263 267 269 256
19 347 302 309 315 306 298 234 143 122 348 327 308 305 306 307 308 311 314 315 317 318 318 317 315 313 312 310 309 306 305 299 294 290 289 287 284 279 276 270 264 259 252 246 248 255 255 258 262
11 12 337 317 326 314 314 6 84 31 340 322 320 317 316 316 316 317 316 317 317 316 317 317 316 314 312 311 310 307 304 301 298 292 287 284 280 277 272 267 264 260 254 247 242 246 247 248 250
44 17 343 322 326 308 305 1 107 17 320 312 311 315 318 318 316 316 317 319 318 317 318 317 315 313 311 311 308 305 304 301 298 295 293 289 283 277 272 266 261 257 253 247 242 241 243 242 244
Height
1525 1527 1531 1534 1529 1516 1503 1497 1495 1495 1494 1497 1498 1497 1496 1496 1499 1506 1508 1507 1509 1512 1514 1517 1521 1524 1527 1529 1532 1534 1537 1539 1541 1543 1544 1546 1547 1548 1549 1550 1551 1552 1553 1555 1556 1557 1557 1558 1559
1527 1529 1533 1531 1515 1505 1503 1497 1496 1497 1498 1499 1499 1499 1498 1498 1504 1507 1507 1508 1511 1514 1516 1519 1522 1525 1528 1530 1533 1535 1537 1539 1541 1543 1544 1546 1547 1549 1550 1551 1551 1552 1554 1555 1556 1557 1558 1559 1559
1529 1531 1531 1519 1505 1505 1504 1496 1496 1497 1499 1500 1499 1500 1501 1503 1507 1508 1508 1509 1513 1516 1518 1520 1523 1526 1529 1531 1534 1536 1538 1540 1542 1543 1545 1546 1547 1548 1550 1551 1552 1553 1554 1555 1556 1557 1558 1559 1560
1530 1531 1527 1514 1503 1500 1499 1497 1497 1496 1498 1500 1499 1500 1504 1508 1508 1509 1508 1511 1514 1517 1520 1522 1524 1527 1530 1532 1535 1537 1539 1540 1542 1543 1545 1546 1547 1548 1549 1551 1552 1553 1554 1555 1556 1557 1558 1559 1560
1530 1526 1514 1504 1500 1498 1497 1498 1498 1496 1497 1498 1499 1499 1505 1509 1508 1509 1511 1513 1516 1520 1523 1523 1526 1528 1531 1533 1535 1537 1539 1540 1542 1543 1544 1545 1547 1548 1549 1550 1551 1552 1553 1554 1555 1556 1558 1559 1560
1528 1520 1510 1503 1500 1498 1497 1498 1497 1496 1497 1499 1499 1500 1507 1510 1511 1512 1514 1517 1520 1522 1525 1524 1526 1529 1531 1534 1535 1537 1539 1540 1541 1543 1544 1545 1546 1547 1548 1549 1550 1551 1553 1554 1555 1556 1557 1558 1559
1524 1514 1507 1504 1503 1499 1499 1499 1497 1497 1498 1499 1501 1500 1507 1511 1512 1514 1516 1519 1522 1525 1527 1526 1528 1530 1532 1534 1535 1537 1539 1540 1541 1542 1543 1544 1545 1546 1547 1548 1549 1550 1551 1552 1553 1554 1555 1556 1557
1522 1514 1506 1502 1503 1500 1499 1499 1499 1499 1500 1503 1503 1501 1506 1511 1512 1514 1516 1519 1522 1525 1527 1528 1530 1531 1532 1534 1535 1536 1538 1539 1540 1541 1542 1543 1543 1544 1545 1546 1547 1548 1549 1550 1551 1552 1553 1554 1555
1522 1515 1505 1501 1502 1499 1500 1500 1500 1501 1502 1504 1506 1507 1509 1509 1511 1513 1516 1519 1521 1524 1526 1528 1530 1530 1532 1534 1534 1535 1536 1537 1538 1539 1539 1540 1541 1543 1543 1543 1544 1545 1546 1547 1548 1549 1550 1551 1552
1517 1509 1502 1502 1503 1501 1502 1502 1501 1500 1500 1505 1507 1509 1509 1509 1511 1513 1515 1517 1519 1521 1524 1526 1528 1529 1530 1532 1533 1534 1535 1536 1536 1537 1537 1538 1539 1540 1541 1541 1540 1541 1542 1543 1544 1546 1547 1548 1549
1511 1506 1503 1504 1505 1504 1503 1503 1504 1501 1503 1509 1510 1510 1511 1511 1512 1513 1515 1517 1518 1520 1522 1525 1526 1527 1529 1530 1531 1532 1533 1533 1533 1534 1534 1534 1535 1536 1537 1537 1537 1537 1538 1540 1541 1542 1543 1544 1545
1509 1506 1507 1506 1505 1505 1504 1504 1506 1509 1512 1512 1510 1510 1511 1513 1514 1516 1517 1518 1519 1520 1522 1524 1525 1526 1527 1528 1529 1530 1530 1531 1531 1530 1530 1531 1530 1531 1532 1533 1534 1534 1535 1535 1537 1537 1539 1540 1541
1507 1505 1505 1506 1505 1505 1506 1507 1510 1514 1515 1513 1512 1512 1513 1514 1515 1517 1518 1518 1519 1520 1521 1522 1523 1524 1525 1526 1527 1527 1527 1528 1528 1527 1526 1526 1526 1526 1527 1527 1528 1529 1530 1531 1531 1532 1533 1534 1535
1503 1504 1504 1505 1505 1505 1506 1509 1512 1517 1517 1516 1515 1515 1515 1515 1516 1517 1518 1519 1520 1521 1521 1522 1523 1524 1524 1525 1524 1523 1523 1523 1522 1521 1521 1520 1520 1520 1521 1521 1522 1523 1524 1525 1526 1527 1527 1528 1530
1505 1502 1501 1504 1504 1505 1504 1510 1518 1520 1520 1520 1519 1519 1518 1518 1518 1518 1519 1519 1520 1521 1521 1522 1522 1522 1522 1522 1522 1521 1519 1519 1518 1516 1515 1514 1514 1514 1514 1514 1515 1517 1519 1519 1519 1520 1521 1522 1524
1498 1496 1497 1504 1503 1504 1503 1512 1521 1522 1522 1522 1522 1522 1521 1520 1520 1520 1520 1520 1521 1521 1521 1521 1521 1521 1521 1520 1519 1517 1516 1514 1512 1510 1509 1507 1507 1506 1506 1507 1509 1510 1512 1513 1513 1514 1516 1516 1518
1492 1493 1496 1502 1504 1503 1501 1514 1523 1523 1523 1524 1524 1524 1524 1523 1523 1522 1522 1522 1521 1521 1521 1521 1521 1520 1519 1518 1516 1514 1512 1510 1507 1505 1502 1500 1499 1499 1499 1500 1502 1504 1505 1506 1507 1509 1510 1511 1512
1495 1493 1497 1502 1507 1505 1509 1518 1523 1525 1525 1525 1526 1526 1526 1525 1525 1524 1523 1523 1523 1522 1522 1521 1521 1519 1518 1517 1515 1512 1510 1508 1504 1501 1498 1495 1494 1493 1493 1493 1494 1497 1498 1500 1501 1503 1504 1506 1507
1493 1494 1499 1505 1510 1510 1515 1519 1523 1525 1525 1526 1526 1527 1527 1526 1526 1526 1525 1525 1524 1523 1522 1521 1520 1519 1517 1515 1514 1511 1509 1506 1503 1499 1496 1492 1490 1488 1487 1486 1488 1491 1492 1493 1495 1497 1499 1501 1503
1494 1496 1500 1508 1511 1511 1516 1520 1523 1525 1527 1527 1528 1528 1528 1528 1528 1527 1527 1526 1525 1523 1522 1521 1519 1518 1516 1514 1512 1509 1507 1504 1501 1498 1494 1491 1488 1485 1484 1483 1484 1486 1488 1488 1490 1492 1495 1497 1500
1493 1494 1496 1504 1510 1509 1511 1518 1520 1524 1527 1528 1529 1529 1529 1529 1529 1528 1527 1526 1525 1524 1522 1520 1518 1517 1515 1513 1511 1509 1506 1503 1500 1497 1493 1490 1487 1485 1483 1482 1483 1483 1483 1484 1486 1488 1490 1494 1496
1495 1491 1494 1501 1506 1503 1507 1511 1516 1518 1521 1525 1527 1528 1528 1529 1529 1528 1527 1526 1525 1523 1521 1519 1517 1515 1513 1511 1509 1506 1504 1501 1498 1495 1491 1488 1486 1483 1481 1480 1480 1479 1480 1480 1482 1484 1487 1489 1492
1493 1493 1494 1497 1498 1500 1502 1504 1512 1515 1518 1520 1524 1527 1528 1528 1528 1527 1527 1525 1524 1522 1520 1518 1515 1513 1510 1508 1506 1504 1502 1499 1497 1493 1490 1487 1484 1481 1479 1478 1477 1476 1476 1477 1478 1480 1483 1485 1487
1494 1495 1496 1495 1494 1506 1501 1505 1512 1511 1515 1518 1522 1525 1527 1527 1527 1526 1525 1524 1522 1521 1518 1516 1513 1510 1507 1505 1502 1500 1498 1495 1493 1490 1487 1485 1482 1479 1477 1475 1474 1473 1473 1473 1474 1476 1478 1480 1482
1493 1497 1505 1507 1506 1505 1500 1503 1514 1514 1517 1519 1521 1523 1525 1525 1525 1524 1523 1522 1520 1518 1515 1512 1509 1506 1504 1501 1498 1496 1493 1491 1488 1486 1484 1481 1479 1477 1474 1473 1471 1470 1469 1469 1470 1471 1472 1474 1476
1492 1494 1506 1516 1510 1500 1500 1504 1515 1517 1520 1522 1522 1522 1523 1523 1523 1522 1521 1519 1517 1514 1512 1509 1505 1502 1499 1497 1494 1491 1488 1486 1484 1482 1479 1477 1475 1473 1471 1468 1467 1466 1465 1465 1465 1465 1466 1468 1470
1492 1492 1491 1497 1498 1504 1499 1507 1515 1518 1519 1520 1520 1521 1521 1521 1521 1520 1518 1516 1513 1511 1508 1505 1501 1498 1494 1491 1488 1485 1482 1480 1477 1474 1472 1471 1469 1468 1466 1464 1463 1461 1460 1460 1460 1460 1460 1461 1463
1494 1493 1494 1499 1512 1512 1503 1504 1510 1514 1516 1516 1517 1518 1519 1519 1518 1517 1515 1512 1510 1507 1504 1500 1496 1492 1489 1485 1482 1479 1476 1473 1470 1468 1465 1463 1461 1460 1459 1458 1457 1456 1455 1455 1454 1454 1454 1455 1456
1497 1497 1498 1497 1504 1514 1514 1508 1508 1513 1516 1516 1516 1517 1517 1517 1516 1514 1511 1509 1506 1503 1499 1495 1491 1487 1483 1479 1475 1471 1468 1465 1462 1460 1457 1455 1453 1452 1451 1450 1450 1450 1449 1449 1449 1449 1449 1449 1450
1499 1502 1501 1509 1510 1508 1510 1509 1510 1513 1514 1515 1516 1516 1516 1515 1513 1510 1508 1505 1502 1498 1494 1490 1486 1481 1477 1473 1469 1464 1461 1457 1454 1452 1449 1447 1445 1443 1442 1442 1441 1442 1442 1443 1443 1443 1443 1444 1444